Topeka Forbes, KS

11:39 PM CST on December 09, 2019 (GMT -0600)
Forbes

Weather History for KFOE - October, 2019

Change the Weather History Date:

Tuesday, October 22, 2019

  Actual Average Record
Temperature  
Mean Temperature 51 °F -  
Max Temperature 62 °F 67 °F 86 °F (1991)
Min Temperature 41 °F 45 °F 24 °F (1982)
Degree Days  
Heating Degree Days 14    
Growing Degree Days 1 (Base 50)    
Moisture  
Dew Point 31 °F    
Average Humidity 50    
Maximum Humidity 76    
Minimum Humidity 32    
Precipitation  
Precipitation 0.00 in - - ()
Sea Level Pressure  
Sea Level Pressure 29.98 in    
Wind  
Wind Speed 15 mph (West)    
Max Wind Speed 23 mph    
Max Gust Speed 33 mph    
Visibility 10 miles    
Events      
Averages and records for this station are not official NWS values.
T = Trace of Precipitation, MM = Missing Value Source: NWS Daily Summary

Daily Weather History Graph

Daily Weather History Graph

Search for Another Location

Airport or City:

Astronomy

Oct. 22, 2019 Rise Set
Actual Time 7:39 AM CDT 6:34 PM CDT
Civil Twilight 7:11 AM CDT 7:01 PM CDT
Nautical Twilight 6:40 AM CDT 7:32 PM CDT
Astronomical Twilight 6:09 AM CDT 8:03 PM CDT
Moon 12:54 AM CDT (10/22) 3:40 PM CDT (10/22)
Length of Visible Light 11h 49m
Length of Day
10h 55m
Last Quarter, 37% of the Moon is Illuminated
Oct 22
Last Quarter
Oct 27
New
Nov 4
First Quarter
Nov 12
Full
Nov 19
Last Quarter

Hourly Weather History & Observations

Time (CDT) Temp. Windchill Dew Point Humidity Pressure Visibility Wind Dir Wind Speed Gust Speed Precip Events Conditions
12:53 AM 46.9 °F - 32.0 °F 56% 29.90 in 10.0 mi West 16.1 mph - N/A   Clear
1:53 AM 46.9 °F - 30.0 °F 52% 29.91 in 10.0 mi West 17.3 mph 27.6 mph N/A   Clear
2:53 AM 46.0 °F 39.3 °F 28.9 °F 51% 29.91 in 10.0 mi WNW 16.1 mph - N/A   Clear
3:53 AM 45.0 °F 37.6 °F 28.9 °F 53% 29.93 in 10.0 mi West 17.3 mph - N/A   Clear
4:53 AM 44.1 °F 37.1 °F 28.9 °F 55% 29.96 in 10.0 mi West 15.0 mph - N/A   Clear
5:53 AM 44.1 °F 37.4 °F 28.9 °F 55% 29.97 in 10.0 mi West 13.8 mph - N/A   Clear
6:53 AM 42.1 °F 36.1 °F 28.9 °F 60% 29.99 in 10.0 mi West 10.4 mph - N/A   Clear
8:53 AM 45.0 °F 37.9 °F 30.0 °F 56% 30.04 in 10.0 mi West 16.1 mph 24.2 mph N/A   Clear
10:53 AM 53.1 °F - 30.9 °F 43% 30.05 in 10.0 mi West 23.0 mph 29.9 mph N/A   Clear
11:53 AM 55.9 °F - 30.9 °F 39% 30.05 in 10.0 mi WNW 17.3 mph 28.8 mph N/A   Clear
12:53 PM 57.9 °F - 30.0 °F 35% 30.05 in 10.0 mi WNW 23.0 mph 33.4 mph N/A   Clear
1:53 PM 60.1 °F - 30.9 °F 33% 30.03 in 10.0 mi WNW 18.4 mph 32.2 mph N/A   Clear
2:53 PM 60.1 °F - 30.0 °F 32% 30.00 in 10.0 mi WNW 15.0 mph 28.8 mph N/A   Clear
3:53 PM 61.0 °F - 32.0 °F 34% 30.00 in 10.0 mi WNW 21.9 mph 28.8 mph N/A   Mostly Cloudy
4:53 PM 61.0 °F - 30.9 °F 32% 30.00 in 10.0 mi WNW 12.7 mph 23.0 mph N/A   Clear
5:53 PM 57.9 °F - 30.9 °F 36% 30.00 in 10.0 mi West 12.7 mph - N/A   Clear
6:53 PM 48.9 °F - 30.9 °F 50% 29.99 in 10.0 mi SW 3.5 mph - N/A   Clear
7:53 PM 45.0 °F 41.2 °F 32.0 °F 60% 29.99 in 10.0 mi SSW 6.9 mph - N/A   Clear
8:53 PM 42.1 °F 39.2 °F 34.0 °F 73% 29.98 in 10.0 mi South 4.6 mph - N/A   Clear
9:53 PM 43.0 °F 38.8 °F 32.0 °F 65% 29.96 in 10.0 mi South 6.9 mph - N/A   Clear
10:53 PM 41.0 °F 39.0 °F 34.0 °F 76% 29.96 in 10.0 mi South 3.5 mph - N/A   Scattered Clouds
11:53 PM 46.9 °F - 35.1 °F 63% 29.94 in 10.0 mi SSW 6.9 mph - N/A   Overcast